Content
SEND FEEDBACK

Daily
Averages
Monthly
Summary
United States of America

MCCLOUD, CALIFORNIA


Home > North America > United States > California
Elevation: 3339 feet     Latitude: 41 15N     Longitude: 122 08W

WEATHER
 
SELECT A DAY
Number of Records: 231,638;   Date Range: 1/1/95 - 9/21/14
 
SHARE

PRINT THIS DATA

[ ← Previous Day ]
WEATHER ALMANAC - FEBRUARY 13, 2013
[ Next Day → ]
[ °C ]   °F
Weather ElementAverageHighLow
Temperature42.7 °F54 °F (2:56 pm)30 °F (1:56 am)
Dewpoint30.1 °F33.1 °F (9:56 pm)26.1 °F (1:56 am)
Humidity63.3 %85 % (1:56 am)41 % (1:56 pm)
Barometer30.43 in30.48 in (2:56 am)30.38 in (3:56 pm)
Wind Speed6.4 mph12.7 mph (12:56 pm)
Wind Gust23 mph (8:56 pm)
Weather ElementAverage
Visibility9.9 mi
Wind DirectionS (180 °)

Weather ElementTotal
Precipitation---
Heating Degree Days23 (Base 65)
Averaged from 23 records on February 13, 2013
WEATHER CONDITIONS BREAKOUT
WIND DIRECTION BREAKOUT
WEATHER BY HOUR - FEBRUARY 13, 2013
[ °C ]   °F
Local TimeTemperatureDewpointHumidityBarometerVisibilityWind DirectionWind SpeedGust SpeedPrecipitationEventsConditions
1:56 AM30.0 °F26.1 °F85 %30.47 in10.0 miCalmClear
2:56 AM30.0 °F26.1 °F85 %30.48 in10.0 miCalmClear
3:56 AM34.0 °F28.9 °F82 %30.47 in10.0 miVariable4.6 mphClear
4:56 AM32.0 °F28.0 °F85 %30.46 in10.0 miCalmPartly Cloudy
5:56 AM35.1 °F28.9 °F78 %30.47 in10.0 miNNW (340°)4.6 mphClear
6:56 AM34.0 °F28.0 °F79 %30.47 in10.0 miVariable3.5 mphOvercast
7:56 AM35.1 °F28.9 °F78 %30.47 in7.0 miCalmOvercast
8:56 AM37.9 °F28.9 °F70 %30.48 in10.0 miCalmOvercast
9:56 AM44.1 °F30.9 °F60 %30.47 in10.0 miVariable6.9 mphPartly Cloudy
10:56 AM46.0 °F30.0 °F54 %30.45 in10.0 miVariable6.9 mphClear
11:56 AM52.0 °F30.9 °F45 %30.42 in10.0 miNW (320°)8.1 mphClear
12:56 PM52.0 °F30.9 °F45 %30.40 in10.0 miNW (320°)12.7 mph21.9 mphClear
1:56 PM53.1 °F30.0 °F41 %30.39 in10.0 miWNW (300°)11.5 mph19.6 mphClear
2:56 PM54.0 °F30.9 °F41 %30.39 in10.0 miNW (310°)10.4 mph20.7 mphClear
3:56 PM53.1 °F30.0 °F41 %30.38 in10.0 miNW (310°)11.5 mph20.7 mphClear
4:56 PM50.0 °F30.0 °F46 %30.39 in10.0 miWNW (290°)8.1 mphClear
5:56 PM46.9 °F30.9 °F54 %30.38 in10.0 miNW (310°)9.2 mphClear
6:56 PM46.9 °F30.9 °F54 %30.40 in10.0 miNW (310°)6.9 mphClear
7:56 PM45.0 °F30.9 °F58 %30.42 in10.0 miWNW (300°)11.5 mph20.7 mphClear
8:56 PM43.0 °F32.0 °F65 %30.43 in10.0 miNW (310°)9.2 mph23.0 mphClear
9:56 PM43.0 °F33.1 °F68 %30.42 in10.0 miNNW (330°)8.1 mph20.7 mphClear
10:56 PM43.0 °F33.1 °F68 %30.42 in10.0 miNW (320°)8.1 mph17.3 mphClear
11:56 PM41.0 °F33.1 °F73 %30.43 in10.0 miENE (70°)5.8 mphMostly Cloudy
Hourly data recorded from KMHS, located miles away from McCloud, California







STORIES FROM OUR PARTNERS